Previsão horária em Abha

Hoje, 19 Janeiro, Terça-feira

Tempo Temperatura Precipitação Vento Pressão Humidade
00:00 +18°C° 0 mm 0 m/s 644 mmHg 74%
01:00 +17°C° 0 mm 0 m/s 644 mmHg 77%
02:00 +17°C° 0 mm 0 m/s 643 mmHg 80%
03:00 +17°C° 0 mm 0 m/s 643 mmHg 82%
04:00 +16°C° 0 mm 0 m/s 643 mmHg 85%
05:00 +16°C° 0 mm 0 m/s 643 mmHg 87%
06:00 +18°C° 0 mm 1 m/s 643 mmHg 89%
07:00 +19°C° 0 mm 1 m/s 644 mmHg 82%
08:00 +19°C° 0 mm 1 m/s 644 mmHg 75%
09:00 +20°C° 0 mm 1 m/s 645 mmHg 67%
10:00 +21°C° 0 mm 1 m/s 645 mmHg 65%
11:00 +21°C° 0 mm 2 m/s 645 mmHg 63%
12:00 +23°C° 0 mm 2 m/s 645 mmHg 61%
13:00 +23°C° 0 mm 2 m/s 644 mmHg 63%
14:00 +23°C° 0 mm 2 m/s 644 mmHg 64%
15:00 +23°C° 0 mm 2 m/s 643 mmHg 66%
16:00 +21°C° 0 mm 2 m/s 643 mmHg 68%
17:00 +21°C° 0 mm 2 m/s 643 mmHg 70%
18:00 +20°C° 0 mm 2 m/s 643 mmHg 71%
19:00 +21°C° 0 mm 1 m/s 644 mmHg 73%
20:00 +20°C° 0 mm 1 m/s 644 mmHg 75%
21:00 +20°C° 0 mm 1 m/s 644 mmHg 77%
22:00 +20°C° 0 mm 1 m/s 644 mmHg 78%
23:00 +17°C° 0 mm 0 m/s 644 mmHg 79%

Amanhã, 20 Janeiro, Quarta-feira

Tempo Temperatura Precipitação Vento Pressão Humidade
00:00 +17°C° 0 mm 0 m/s 644 mmHg 79%
01:00 +17°C° 0 mm 0 m/s 644 mmHg 78%
02:00 +17°C° 0 mm 0 m/s 643 mmHg 77%
03:00 +18°C° 0 mm 1 m/s 643 mmHg 76%
04:00 +16°C° 0 mm 0 m/s 643 mmHg 75%
05:00 +16°C° 0 mm 0 m/s 643 mmHg 74%
06:00 +15°C° 0 mm 0 m/s 643 mmHg 74%
07:00 +16°C° 0 mm 0 m/s 644 mmHg 67%
08:00 +19°C° 0 mm 1 m/s 644 mmHg 61%
09:00 +21°C° 0 mm 1 m/s 645 mmHg 54%
10:00 +20°C° 0 mm 2 m/s 645 mmHg 52%
11:00 +21°C° 0 mm 2 m/s 645 mmHg 51%
12:00 +22°C° 0 mm 3 m/s 645 mmHg 49%
13:00 +22°C° 0 mm 3 m/s 645 mmHg 50%
14:00 +22°C° 0 mm 3 m/s 644 mmHg 51%
15:00 +24°C° 0 mm 3 m/s 644 mmHg 52%
16:00 +22°C° 0 mm 3 m/s 644 mmHg 58%
17:00 +21°C° 0 mm 3 m/s 644 mmHg 64%
18:00 +20°C° 0 mm 2 m/s 644 mmHg 70%
19:00 +20°C° 0 mm 2 m/s 644 mmHg 73%
20:00 +19°C° 0 mm 2 m/s 645 mmHg 76%
21:00 +20°C° 0 mm 1 m/s 645 mmHg 79%
22:00 +19°C° 0 mm 1 m/s 645 mmHg 79%
23:00 +19°C° 0 mm 1 m/s 645 mmHg 78%

Depois de amanhã, 21 Janeiro, Quinta-feira

Tempo Temperatura Precipitação Vento Pressão Humidade
00:00 +17°C° 0 mm 0 m/s 645 mmHg 78%
01:00 +17°C° 0 mm 0 m/s 644 mmHg 75%
02:00 +17°C° 0 mm 0 m/s 644 mmHg 73%
03:00 +17°C° 0 mm 0 m/s 644 mmHg 70%
04:00 +18°C° 0 mm 1 m/s 644 mmHg 72%
05:00 +18°C° 0 mm 1 m/s 644 mmHg 74%
06:00 +18°C° 0 mm 1 m/s 644 mmHg 75%
07:00 +18°C° 0 mm 1 m/s 645 mmHg 69%
08:00 +19°C° 0 mm 1 m/s 645 mmHg 64%
09:00 +20°C° 0 mm 1 m/s 646 mmHg 58%
10:00 +20°C° 0 mm 2 m/s 646 mmHg 54%
11:00 +21°C° 0 mm 2 m/s 646 mmHg 51%
12:00 +23°C° 0 mm 2 m/s 646 mmHg 47%
13:00 +24°C° 0 mm 2 m/s 645 mmHg 47%
14:00 +24°C° 0 mm 2 m/s 645 mmHg 46%
15:00 +25°C° 0 mm 3 m/s 644 mmHg 46%
16:00 +24°C° 0 mm 3 m/s 644 mmHg 51%
17:00 +22°C° 0 mm 3 m/s 644 mmHg 55%
18:00 +21°C° 0 mm 3 m/s 644 mmHg 59%
19:00 +20°C° 0 mm 3 m/s 645 mmHg 58%
20:00 +20°C° 0 mm 2 m/s 645 mmHg 56%
21:00 +19°C° 0 mm 2 m/s 646 mmHg 54%
22:00 +19°C° 0 mm 2 m/s 646 mmHg 53%
23:00 +18°C° 0 mm 2 m/s 646 mmHg 52%

22 Janeiro, Sexta-feira

Tempo Temperatura Precipitação Vento Pressão Humidade
00:00 +18°C° 0 mm 2 m/s 646 mmHg 50%
01:00 +17°C° 0 mm 2 m/s 645 mmHg 49%
02:00 +17°C° 0 mm 2 m/s 645 mmHg 48%
03:00 +16°C° 0 mm 3 m/s 644 mmHg 47%
04:00 +16°C° 0 mm 2 m/s 644 mmHg 47%
05:00 +16°C° 0 mm 2 m/s 644 mmHg 46%
06:00 +16°C° 0 mm 2 m/s 644 mmHg 46%
07:00 +17°C° 0 mm 2 m/s 645 mmHg 41%
08:00 +19°C° 0 mm 1 m/s 645 mmHg 36%
09:00 +21°C° 0 mm 1 m/s 646 mmHg 32%
10:00 +21°C° 0 mm 2 m/s 646 mmHg 29%
11:00 +23°C° 0 mm 2 m/s 646 mmHg 27%
12:00 +24°C° 0 mm 3 m/s 646 mmHg 25%
13:00 +24°C° 0 mm 3 m/s 645 mmHg 26%
14:00 +24°C° 0 mm 3 m/s 644 mmHg 27%
15:00 +24°C° 0 mm 3 m/s 644 mmHg 28%
16:00 +24°C° 0 mm 3 m/s 644 mmHg 33%
17:00 +23°C° 0 mm 2 m/s 644 mmHg 38%
18:00 +21°C° 0 mm 2 m/s 644 mmHg 43%
19:00 +21°C° 0 mm 1 m/s 644 mmHg 47%
20:00 +21°C° 0 mm 1 m/s 645 mmHg 51%
21:00 +20°C° 0 mm 1 m/s 645 mmHg 56%
22:00 +20°C° 0 mm 1 m/s 645 mmHg 56%
23:00 +18°C° 0 mm 0 m/s 645 mmHg 56%

23 Janeiro, Sábado

Tempo Temperatura Precipitação Vento Pressão Humidade
00:00 +17°C° 0 mm 0 m/s 644 mmHg 56%
01:00 +17°C° 0 mm 0 m/s 644 mmHg 54%
02:00 +17°C° 0 mm 0 m/s 644 mmHg 52%
03:00 +17°C° 0 mm 0 m/s 644 mmHg 50%
04:00 +16°C° 0 mm 0 m/s 644 mmHg 53%
05:00 +16°C° 0 mm 0 m/s 644 mmHg 56%
06:00 +15°C° 0 mm 0 m/s 643 mmHg 59%
07:00 +18°C° 0 mm 1 m/s 644 mmHg 56%
08:00 +19°C° 0 mm 1 m/s 645 mmHg 52%
09:00 +20°C° 0 mm 1 m/s 645 mmHg 49%
10:00 +20°C° 0 mm 2 m/s 645 mmHg 48%
11:00 +21°C° 0 mm 2 m/s 645 mmHg 47%
12:00 +22°C° 0 mm 3 m/s 645 mmHg 47%
13:00 +22°C° 0 mm 3 m/s 644 mmHg 48%
14:00 +22°C° 0 mm 3 m/s 644 mmHg 50%
15:00 +24°C° 0 mm 3 m/s 644 mmHg 51%
16:00 +22°C° 0 mm 3 m/s 643 mmHg 57%
17:00 +21°C° 0 mm 2 m/s 643 mmHg 63%
18:00 +20°C° 0 mm 2 m/s 643 mmHg 68%
19:00 +21°C° 0 mm 1 m/s 644 mmHg 67%
20:00 +21°C° 0 mm 1 m/s 644 mmHg 66%
21:00 +20°C° 0 mm 1 m/s 644 mmHg 65%
22:00 +20°C° 0 mm 1 m/s 644 mmHg 67%
23:00 +20°C° 0 mm 1 m/s 644 mmHg 69%

24 Janeiro, Domingo

Tempo Temperatura Precipitação Vento Pressão Humidade
00:00 +17°C° 0 mm 0 m/s 644 mmHg 70%
01:00 +17°C° 0 mm 0 m/s 643 mmHg 70%
02:00 +17°C° 0 mm 0 m/s 643 mmHg 71%
03:00 +16°C° 0 mm 0 m/s 643 mmHg 71%
04:00 +16°C° 0 mm 0 m/s 643 mmHg 70%
05:00 +16°C° 0 mm 0 m/s 643 mmHg 70%
06:00 +16°C° 0 mm 0 m/s 643 mmHg 69%
07:00 +17°C° 0 mm 0 m/s 644 mmHg 65%
08:00 +19°C° 0 mm 1 m/s 644 mmHg 62%
09:00 +20°C° 0 mm 1 m/s 645 mmHg 58%
10:00 +21°C° 0 mm 1 m/s 645 mmHg 57%
11:00 +21°C° 0 mm 2 m/s 645 mmHg 55%
12:00 +23°C° 0 mm 2 m/s 645 mmHg 54%
13:00 +23°C° 0 mm 2 m/s 644 mmHg 57%
14:00 +23°C° 0 mm 2 m/s 644 mmHg 59%
15:00 +22°C° 0 mm 3 m/s 644 mmHg 62%
16:00 +21°C° 0 mm 2 m/s 644 mmHg 66%
17:00 +21°C° 0 mm 2 m/s 644 mmHg 70%
18:00 +21°C° 0 mm 1 m/s 644 mmHg 75%
19:00 +21°C° 0 mm 1 m/s 644 mmHg 71%
20:00 +21°C° 0 mm 1 m/s 644 mmHg 67%
21:00 +20°C° 0 mm 1 m/s 645 mmHg 63%
22:00 +20°C° 0 mm 1 m/s 645 mmHg 64%
23:00 +20°C° 0 mm 1 m/s 644 mmHg 65%
Mostrar mais